GFSWCAN_850_rhum_231.txt.gz
RH
78 80 91 96 89 93 98 99 89 90 84 89 92 93 96 90 78 69 90 86 77 94 95 96 92 91 87 88 95 100 98 100 100 100 99 99 99 89 94 73 87 86 96 97 98 98 95 34 39 57 59 44 40 34
76 78 84 92 91 92 98 99 87 86 84 87 89 90 93 92 84 73 94 93 86 90 98 99 100 99 95 91 99 94 83 93 90 98 100 98 100 99 98 92 74 99 91 97 86 93 46 35 41 35 35 36 32 30
83 76 78 97 98 94 98 98 87 86 84 88 92 92 94 94 81 75 95 95 100 99 98 98 98 99 100 96 100 98 98 84 89 91 96 100 99 98 98 98 84 88 71 98 68 55 39 29 27 28 32 35 33 30
86 83 84 91 100 91 94 95 93 90 92 99 94 93 96 92 69 81 97 90 86 96 98 96 98 97 99 99 99 99 79 87 90 92 98 99 99 94 99 96 98 91 67 72 69 44 35 33 32 33 33 34 35 35
94 93 92 93 100 95 92 90 91 90 94 94 96 98 98 91 82 82 91 87 83 68 97 97 99 100 94 95 98 100 90 86 94 99 99 100 99 98 96 72 87 47 48 73 78 43 46 39 36 37 39 41 49 55
99 100 100 95 89 90 94 93 93 99 100 100 100 100 100 99 88 99 99 100 100 89 88 98 98 100 99 100 100 100 100 99 98 98 99 100 89 86 96 80 28 27 30 30 38 35 37 39 42 53 58 65 71 77
96 98 97 98 96 93 93 98 99 100 99 100 99 100 100 99 92 97 86 80 92 99 95 98 99 100 98 100 100 100 99 99 98 100 100 84 70 81 95 60 30 29 32 36 40 43 51 62 85 74 71 72 70 76
90 89 96 96 99 100 98 100 100 100 100 100 99 83 85 92 96 98 98 85 76 99 95 98 99 97 99 99 99 99 99 99 99 86 66 65 59 64 86 36 28 40 44 49 59 70 83 79 66 72 74 70 75 97
100 98 100 100 100 100 100 100 100 100 100 93 90 97 100 100 99 99 98 100 100 94 96 99 86 98 99 100 99 99 99 99 72 85 64 59 71 78 50 35 53 52 57 78 73 72 74 80 92 96 93 97 88 93
100 100 100 100 100 100 100 100 96 96 99 100 100 98 99 100 99 98 100 100 100 100 100 97 80 98 96 99 100 99 100 92 91 74 38 84 71 44 50 54 62 68 73 71 67 91 93 93 88 83 86 89 78 78
100 98 96 94 92 91 92 98 99 99 100 100 99 98 99 100 98 100 99 99 99 99 100 95 77 95 95 98 98 88 95 89 89 87 83 86 91 76 60 74 77 79 81 86 88 87 86 80 77 78 78 77 66 93
90 93 98 96 90 93 100 100 100 100 99 97 84 99 98 99 100 99 99 99 99 96 99 92 96 98 99 95 90 74 75 88 78 69 92 91 91 55 76 78 79 78 78 84 82 77 67 70 74 67 74 68 77 78
95 78 74 76 84 93 100 100 100 98 98 81 88 97 99 99 98 96 96 99 93 87 85 93 98 94 78 58 71 72 80 89 68 92 88 94 70 81 78 79 77 78 81 78 79 78 72 72 61 69 58 60 66 76
75 87 92 97 99 99 100 100 100 99 99 98 99 98 97 98 95 87 83 86 79 81 83 77 72 86 62 85 84 72 77 78 90 90 92 92 85 83 81 77 76 79 74 69 68 68 59 62 57 58 56 57 60 59
87 89 89 99 100 100 100 100 100 98 96 96 94 94 94 82 86 79 63 68 78 76 65 66 69 64 90 82 79 72 81 82 78 82 92 85 88 81 82 83 81 67 63 60 61 58 62 58 56 48 56 56 58 60
84 95 99 100 100 100 100 100 98 94 93 92 90 95 94 98 90 76 74 76 70 60 49 55 86 88 81 75 72 77 71 69 97 98 95 88 80 83 82 78 74 66 60 61 61 60 58 49 45 55 57 59 62 65
98 100 100 99 100 100 100 95 96 95 97 96 98 81 87 79 82 77 70 63 53 47 87 84 70 62 78 78 64 84 92 90 92 99 95 85 84 82 79 64 57 64 64 64 58 49 46 44 50 60 62 64 65 73
97 99 100 100 98 98 95 94 92 98 99 100 99 80 74 67 69 63 58 50 40 46 51 64 52 63 77 60 97 96 94 95 95 87 84 82 81 74 61 46 66 65 63 46 45 51 48 50 61 63 63 65 70 84
98 99 99 91 80 82 89 86 85 98 100 100 85 68 67 64 55 51 48 42 39 41 38 54 61 80 90 94 91 95 92 91 91 88 84 80 76 79 78 62 68 62 48 41 33 43 50 58 62 64 65 67 78 85
85 82 81 78 71 64 67 91 94 97 98 94 78 77 79 72 58 55 52 48 44 49 73 87 96 88 90 92 93 96 96 89 86 84 82 78 72 63 59 55 59 49 38 34 48 57 55 67 68 70 67 78 90 87
61 68 70 62 58 53 56 58 66 83 73 74 66 68 73 65 61 55 53 51 58 71 98 95 100 94 88 90 83 74 75 68 75 68 82 82 70 63 73 66 54 43 52 61 66 70 74 80 76 70 66 81 86 96
64 64 62 64 65 54 52 51 54 56 61 64 62 66 76 91 69 55 51 68 75 83 93 95 94 89 81 68 63 53 62 64 67 61 57 61 76 68 61 49 34 41 60 61 65 75 80 81 75 68 64 77 92 96
55 54 59 60 65 57 58 52 50 51 72 68 56 67 81 78 58 47 71 76 89 91 89 85 85 76 78 77 72 76 71 69 75 73 65 59 59 60 62 62 61 66 70 74 71 66 76 80 70 72 75 86 95 94
48 53 68 76 74 93 59 61 48 56 55 66 66 74 79 79 50 66 83 84 88 84 83 86 80 82 79 74 69 65 60 50 64 66 55 52 62 66 64 63 57 54 63 83 88 73 73 75 72 75 86 92 96 93
47 75 69 87 73 86 89 89 76 79 79 78 79 86 86 59 82 78 88 89 91 89 92 89 84 79 74 68 67 66 60 42 28 49 58 51 52 60 61 63 60 55 50 52 51 58 71 73 78 82 85 92 96 95
88 72 77 78 84 80 80 92 89 82 85 86 84 70 63 89 85 79 92 79 88 90 93 85 86 84 81 69 71 72 69 59 38 35 47 47 46 44 52 57 56 55 45 42 43 61 65 67 79 80 85 100 100 98
90 86 60 54 56 60 78 69 65 86 88 86 91 90 92 89 88 96 99 90 89 87 88 80 80 78 76 74 72 73 72 64 51 42 47 53 56 57 55 52 61 63 71 75 64 38 41 51 64 72 87 100 100 98
66 66 87 77 75 70 88 90 87 86 83 68 80 90 85 88 99 99 90 87 88 90 88 82 78 73 71 72 71 69 68 64 58 55 53 47 49 52 59 67 69 66 65 63 43 34 38 44 49 56 61 70 78 79
71 73 70 87 80 90 96 94 86 77 90 72 91 93 97 99 100 95 96 92 94 92 86 78 74 71 71 73 73 70 62 59 56 52 48 35 28 28 23 24 23 26 28 31 32 36 39 46 52 58 62 66 72 78
76 78 80 83 87 87 98 99 99 100 83 79 95 99 96 96 98 98 97 96 97 89 81 76 75 73 68 65 64 70 74 73 69 49 32 18 15 20 19 19 23 27 29 32 34 38 42 47 52 59 70 74 70 77
94 79 76 89 96 96 98 98 98 95 99 98 95 97 95 95 99 97 95 97 88 90 87 83 80 76 63 60 61 63 66 68 58 34 16 16 23 37 33 24 25 29 32 34 36 38 41 46 53 61 78 91 93 83
93 86 92 94 97 96 94 89 90 88 87 88 93 95 91 86 98 99 100 100 100 100 100 91 88 82 75 72 75 76 75 70 52 27 19 23 26 22 17 20 28 31 33 36 38 41 43 48 55 62 70 78 74 66
83 82 83 89 90 85 84 78 77 83 82 89 96 95 98 96 96 100 100 98 98 99 100 100 100 100 100 100 90 85 84 63 36 30 28 25 21 17 16 22 30 33 35 37 38 41 44 46 48 52 55 51 42 40

GFSWCAN_850_rhum_234.txt.gz
RH
94 98 98 91 84 86 86 86 86 91 94 82 84 81 88 97 85 94 90 73 82 84 90 94 92 94 92 76 98 97 99 99 100 100 100 99 99 89 87 79 89 91 98 98 99 99 93 34 40 66 64 44 39 36
100 98 97 98 96 95 94 97 92 92 98 97 84 82 93 98 90 99 99 70 78 90 87 80 90 88 92 90 95 96 94 95 90 98 100 98 100 98 93 93 78 97 92 91 90 87 63 41 48 64 38 37 40 40
96 99 99 98 98 99 99 96 94 99 99 97 92 96 98 98 97 100 98 91 86 90 86 90 92 93 87 88 97 96 96 82 88 85 93 98 100 96 99 98 88 93 85 98 98 91 63 50 48 34 34 35 41 52
87 87 89 93 98 100 97 91 98 100 99 98 98 99 99 98 99 100 99 89 81 78 83 88 85 84 88 82 83 98 98 98 88 93 98 100 99 98 99 97 97 93 95 99 99 76 63 50 38 38 52 57 61 69
95 88 79 79 87 100 98 98 100 100 99 100 99 99 99 99 100 100 99 82 78 63 90 98 93 98 91 90 95 98 100 100 100 100 100 99 100 98 98 100 98 88 94 96 94 55 60 67 69 60 61 78 82 76
96 93 78 78 87 100 100 100 99 100 100 99 92 88 92 100 100 100 100 98 83 75 64 98 98 96 98 98 99 100 100 100 100 98 100 100 100 92 98 97 69 63 58 58 47 48 70 82 75 74 71 76 74 74
93 96 85 76 85 98 100 100 98 98 98 90 83 86 93 100 100 99 95 94 91 83 71 99 100 100 100 100 100 100 100 99 98 99 100 99 100 98 99 95 41 41 40 41 52 53 73 70 94 81 72 77 75 78
92 93 86 86 92 100 99 99 99 94 91 88 87 93 99 100 100 99 81 70 78 88 79 97 100 100 100 100 98 99 100 99 100 100 100 99 100 100 98 57 46 76 66 60 62 59 75 85 80 72 61 56 48 57
98 96 93 100 98 100 98 99 97 93 92 96 98 100 100 100 100 96 96 93 93 89 98 93 96 98 100 100 99 100 100 98 100 99 99 94 98 96 70 43 62 80 56 89 78 73 73 66 65 59 53 56 59 76
99 98 99 100 100 100 98 92 94 97 98 100 100 99 100 100 99 95 100 100 100 100 92 96 87 98 97 99 100 100 98 98 97 97 93 98 84 57 47 63 67 64 63 69 66 75 65 63 64 69 69 69 59 82
97 97 95 97 97 100 99 95 97 100 100 100 100 99 100 100 99 98 100 99 99 99 100 88 91 96 98 97 98 97 98 98 97 96 86 87 89 89 89 76 72 70 68 64 58 61 56 46 60 70 70 51 61 72
99 100 100 100 100 100 100 100 99 100 100 97 91 99 99 98 100 99 98 99 98 95 99 90 90 99 98 93 96 99 97 98 94 79 91 92 86 92 85 79 75 69 63 62 62 48 39 49 49 55 46 54 76 74
99 99 99 99 98 100 99 100 100 100 98 97 96 99 99 100 99 98 97 97 99 99 99 96 98 99 100 99 100 95 96 97 77 92 90 89 88 92 86 79 77 70 63 58 58 54 47 42 42 48 58 63 74 60
94 95 96 96 98 100 100 98 98 97 94 99 96 98 97 98 96 95 92 92 86 90 93 83 98 96 92 98 90 88 87 81 93 92 84 96 96 94 82 76 71 74 66 58 68 55 42 44 57 58 57 60 61 61
98 98 100 100 100 100 100 100 100 95 95 99 99 96 98 84 81 81 72 83 83 86 78 82 89 86 99 96 88 84 94 89 80 80 93 93 97 87 79 76 72 72 63 68 62 45 50 54 58 58 60 61 61 60
99 100 100 99 100 100 100 100 100 98 98 92 90 93 88 99 97 82 82 90 83 75 70 79 97 98 97 94 86 84 79 78 83 96 93 100 95 81 77 75 69 57 57 59 49 44 54 57 55 59 61 58 55 54
100 100 100 100 100 100 100 98 99 98 98 98 99 98 95 84 87 86 85 82 73 66 95 96 93 87 89 86 78 81 82 92 96 96 99 92 81 79 78 70 56 54 58 50 48 56 53 51 58 56 48 51 52 55
96 100 98 100 99 100 99 99 98 98 99 100 99 82 77 76 87 85 76 72 65 67 71 78 72 75 80 68 93 97 99 99 99 98 94 83 78 77 68 55 56 53 48 53 46 52 53 50 47 45 46 47 49 52
98 100 100 100 99 96 98 98 99 98 99 100 89 76 80 78 76 70 73 78 63 61 57 70 66 82 90 96 94 98 100 100 100 97 84 81 77 64 51 40 44 46 50 42 57 56 46 44 43 45 48 48 43 51
99 100 99 98 96 88 95 100 99 99 99 100 100 99 93 84 67 60 55 59 57 72 87 93 98 97 92 88 87 94 99 96 88 90 86 77 62 52 32 31 39 52 45 56 55 46 40 40 45 50 51 43 44 53
99 99 98 90 71 64 78 96 99 97 99 100 94 89 97 67 62 60 65 62 74 92 88 99 100 99 92 92 95 89 85 79 74 66 67 80 75 57 35 37 51 47 48 50 52 54 46 37 47 52 51 48 52 67
84 71 70 71 70 81 70 66 78 78 88 88 76 75 82 93 73 56 70 82 78 79 98 100 100 94 93 90 86 76 68 62 54 49 57 60 67 52 46 53 52 53 55 51 46 35 36 44 48 53 53 52 57 78
73 66 60 56 64 82 77 57 55 59 78 72 61 71 84 81 57 58 93 80 94 92 98 93 89 82 80 85 68 60 57 40 42 47 52 41 31 34 53 62 54 45 55 57 43 37 37 35 46 51 50 55 65 82
60 54 65 72 69 89 61 62 56 65 67 70 76 84 82 76 54 83 93 88 100 97 88 80 68 78 78 70 68 61 56 46 38 36 32 39 53 59 57 47 46 51 48 41 43 48 42 38 41 45 51 58 68 82
46 72 67 90 83 86 89 90 81 77 85 83 84 92 85 65 85 91 98 95 100 90 86 80 73 61 66 71 70 68 67 62 54 49 52 45 54 61 66 62 62 58 47 44 48 44 36 38 39 46 57 60 67 79
85 70 70 83 90 84 87 94 92 89 89 90 88 75 76 91 86 94 96 82 91 91 85 77 65 66 68 61 68 66 65 65 53 43 45 53 48 43 54 56 49 46 43 39 36 30 32 34 41 52 58 58 58 68
92 87 69 71 67 70 87 80 78 87 92 91 93 95 92 96 100 94 94 85 90 87 75 69 62 55 57 63 51 49 52 43 31 32 45 55 47 41 35 28 28 33 37 45 49 44 34 35 40 48 52 51 55 64
80 79 93 90 87 82 94 94 94 88 93 84 84 95 94 96 90 100 99 88 86 85 87 84 69 56 51 53 59 66 66 58 49 46 49 55 58 59 53 39 43 53 53 51 51 49 35 34 39 45 50 56 59 62
87 76 75 94 83 86 97 99 100 100 100 86 95 99 97 100 100 100 96 87 88 88 89 84 83 79 73 69 70 69 64 60 56 58 51 42 41 40 31 30 31 30 32 35 34 33 33 36 41 45 49 54 59 63
85 80 85 92 91 96 98 99 99 98 88 84 94 98 99 99 99 97 89 93 97 89 80 76 76 80 73 74 76 79 74 67 64 57 46 32 21 16 14 13 14 18 22 26 29 31 33 37 40 46 51 58 62 64
91 73 85 93 96 97 98 98 94 91 91 93 89 93 97 98 99 99 92 96 96 97 88 79 78 75 72 74 72 72 71 73 75 72 57 29 16 15 17 18 21 24 27 29 32 34 36 38 43 48 52 56 57 55
90 79 94 96 97 97 92 92 94 96 94 92 94 90 86 84 96 96 98 98 98 97 92 88 84 81 84 81 79 80 73 72 69 65 39 15 16 17 16 16 20 26 29 31 33 35 38 41 46 48 50 53 56 58
86 79 78 88 95 94 92 81 83 93 92 96 97 97 97 93 96 96 97 97 97 96 96 100 100 100 97 96 88 84 82 65 45 39 28 21 20 15 13 14 22 28 32 34 35 36 38 40 43 46 47 48 47 42

GFSWCAN_850_rhum_240.txt.gz
RH
96 97 91 86 86 92 95 89 79 70 67 71 71 66 64 62 74 95 100 98 82 71 69 83 81 81 82 75 95 98 96 99 100 100 99 89 98 84 90 82 91 95 98 98 99 100 94 40 43 64 68 51 48 49
96 100 100 96 94 94 100 99 92 86 73 67 74 72 66 61 67 92 100 100 96 75 67 60 89 87 84 82 73 88 74 89 84 98 97 96 100 95 91 93 73 89 81 89 90 88 64 80 78 76 56 54 55 56
97 95 80 78 75 78 82 99 99 96 85 77 68 67 70 69 68 90 100 100 100 100 86 72 72 70 79 86 91 90 97 95 100 100 96 99 100 94 99 97 83 84 86 94 90 93 79 90 91 91 71 70 83 71
93 90 92 88 86 87 89 94 98 97 94 86 76 70 73 76 78 88 100 100 100 100 98 98 78 76 70 74 86 84 82 80 94 99 97 100 100 94 98 96 95 88 94 96 99 98 99 99 96 66 61 69 78 83
94 92 86 88 89 90 93 96 99 99 95 86 82 80 79 78 85 93 100 99 100 89 94 94 86 79 74 80 68 82 91 92 99 97 100 99 95 98 99 99 99 92 95 99 94 80 94 98 100 96 72 79 81 73
89 99 98 98 92 91 97 100 100 100 94 89 90 87 86 88 91 100 100 100 100 97 72 98 97 85 78 73 62 71 74 90 98 100 98 98 95 98 100 99 76 77 82 81 83 83 90 96 98 88 81 74 71 63
83 83 92 99 95 94 99 99 99 99 94 94 92 92 95 99 100 100 98 93 99 100 91 99 99 100 99 100 99 99 99 100 99 98 100 98 99 99 99 96 71 65 74 88 86 87 100 99 95 82 70 67 55 36
93 90 89 96 98 98 100 98 99 99 98 94 94 96 98 100 100 100 99 83 87 99 100 98 98 98 100 97 96 100 99 99 100 96 100 99 100 100 99 78 68 60 74 81 87 90 92 90 78 73 66 50 32 29
96 96 89 93 100 99 100 100 98 98 97 98 98 100 100 100 100 100 99 92 100 97 99 97 96 98 100 100 98 100 95 99 98 99 98 94 98 98 80 73 77 70 74 87 88 98 83 76 71 65 49 36 28 31
99 100 95 90 96 100 100 99 99 99 98 99 100 100 100 100 99 100 100 100 100 100 95 95 86 97 98 100 100 100 100 98 99 95 96 98 92 72 60 61 64 69 67 78 93 92 80 74 63 51 33 28 30 26
100 97 92 90 98 100 100 100 100 100 100 100 100 100 99 100 99 98 99 99 100 99 96 91 90 96 96 96 98 98 98 97 99 95 97 96 98 85 56 62 73 67 62 72 70 60 58 53 51 35 31 35 33 28
99 95 93 91 98 100 100 100 100 100 100 97 96 100 100 99 100 99 98 99 98 93 99 96 92 84 93 79 94 99 97 99 95 92 98 97 86 58 61 64 72 66 74 80 71 59 57 49 30 21 24 32 29 36
99 99 94 87 98 100 100 100 100 100 100 99 95 99 100 99 98 97 97 99 98 99 100 99 98 96 100 96 94 90 99 97 95 97 91 85 79 70 71 79 84 75 77 78 64 58 37 20 21 20 23 27 36 28
98 93 88 89 100 100 100 100 100 100 97 100 98 97 95 98 95 95 92 93 85 86 93 78 99 96 100 98 95 98 89 97 97 96 86 93 62 82 96 90 85 87 85 67 50 26 16 17 23 24 25 33 24 40
88 86 94 99 100 100 99 100 100 98 96 97 90 97 100 87 89 77 81 98 94 90 82 89 98 91 100 97 97 88 99 96 92 87 86 56 74 99 100 96 87 82 68 45 26 16 15 18 20 28 33 26 42 45
96 98 99 100 100 100 99 100 95 91 82 82 82 95 96 97 99 91 96 98 91 84 76 72 95 99 97 92 97 91 85 88 83 91 77 77 95 99 98 92 80 68 50 31 20 15 17 19 25 24 25 45 47 46
99 100 100 100 100 100 100 90 82 89 94 97 99 90 84 87 92 88 91 89 86 75 94 97 99 90 94 97 96 91 91 85 71 76 80 84 94 96 92 84 69 55 39 26 19 17 17 28 32 29 42 48 44 50
99 100 100 100 99 100 99 84 98 99 98 100 94 95 86 79 79 81 86 86 79 78 80 92 81 99 97 87 90 88 81 85 90 93 96 98 96 92 84 71 61 49 36 27 20 18 25 27 26 38 48 45 47 48
100 100 100 100 99 91 99 100 96 97 99 98 99 98 88 87 80 78 79 88 82 72 69 78 84 89 86 82 83 75 85 92 100 100 100 99 95 87 75 66 59 48 34 26 23 23 19 19 27 42 41 45 47 47
100 100 100 100 85 84 97 99 98 100 99 100 100 100 100 98 90 83 91 88 83 74 91 97 91 84 86 82 77 70 80 92 89 100 100 100 95 78 70 66 58 41 32 32 28 22 28 39 48 44 45 49 46 43
100 100 100 99 91 90 95 100 100 100 100 99 100 99 100 100 100 99 98 100 98 99 99 96 96 89 86 83 86 87 83 81 89 82 100 99 88 74 72 64 44 32 30 27 22 32 37 29 29 38 44 45 43 43
100 100 99 96 93 94 95 99 98 100 99 100 99 99 99 98 99 99 99 99 99 99 98 97 99 99 96 95 97 97 91 95 95 91 95 83 80 75 67 50 33 28 24 18 23 26 28 28 36 39 42 46 42 46
96 97 93 98 96 97 100 99 99 100 97 98 99 98 98 98 99 99 98 99 99 97 94 95 98 99 99 100 100 100 98 89 84 81 80 76 74 71 57 38 20 17 25 26 26 28 27 32 35 39 45 44 46 48
79 82 82 85 86 98 100 99 99 98 99 98 97 97 97 98 98 92 92 99 100 100 100 100 100 100 100 100 100 99 93 79 74 74 74 73 72 60 41 18 22 26 19 19 24 30 32 31 39 46 44 45 47 48
52 72 68 93 84 84 95 98 94 83 97 90 86 94 90 73 95 96 90 99 100 100 99 100 100 100 100 97 94 91 85 74 69 72 75 62 39 30 28 35 34 30 28 27 29 29 29 40 48 46 42 45 48 49
81 75 68 87 93 81 85 96 96 93 90 93 90 88 79 86 91 93 87 94 99 98 100 99 94 92 91 85 83 78 68 58 64 50 38 35 28 17 22 27 27 31 32 30 28 31 36 44 50 44 42 45 44 46
83 82 86 87 81 80 89 84 77 84 91 90 94 93 86 93 98 88 98 100 98 90 86 82 69 58 57 59 48 38 37 37 31 27 24 24 24 21 18 16 19 24 25 25 30 35 45 50 45 40 43 45 44 50
90 87 93 92 92 85 94 94 94 92 94 88 83 99 97 90 96 98 96 88 75 75 76 78 68 49 37 36 41 43 45 42 35 28 27 35 42 42 42 43 41 39 37 34 36 37 38 38 40 42 42 42 49 52
97 86 72 91 86 95 97 98 95 99 100 85 89 89 91 96 100 100 84 85 85 84 72 65 58 54 56 62 66 64 52 48 43 38 32 33 34 32 28 33 30 28 28 28 35 48 55 57 48 39 40 43 47 47
93 74 88 95 94 97 98 100 98 98 92 90 90 96 96 97 99 99 91 94 94 90 82 72 61 62 60 59 53 52 47 42 38 36 30 27 23 27 27 26 22 23 28 35 41 42 42 41 35 34 35 40 44 48
78 80 93 94 97 96 98 98 97 92 90 90 84 90 96 97 98 99 100 100 95 88 83 76 68 66 58 51 46 51 54 57 58 56 52 44 40 34 29 26 27 24 23 25 29 32 32 32 34 36 39 42 46 49
79 91 93 96 97 98 97 93 93 96 96 90 94 86 84 84 96 96 97 100 99 88 81 75 72 70 66 63 63 63 62 63 66 68 68 66 57 38 25 13 13 15 17 19 24 28 31 34 36 38 41 44 46 48
88 90 89 94 97 96 88 81 88 95 92 95 96 90 92 92 98 96 97 98 98 99 96 88 88 87 80 77 76 77 71 68 69 70 71 72 63 24 14 14 15 17 20 24 28 31 34 36 38 39 40 41 41 41

GFSWCAN_850_rhum_246.txt.gz
RH
76 79 84 81 83 84 81 76 72 64 62 68 64 53 47 48 62 76 93 94 85 75 71 62 72 67 76 68 80 98 87 94 94 97 88 97 76 51 49 43 62 65 73 84 78 100 85 43 41 67 62 57 54 49
68 71 76 79 81 78 80 78 79 74 70 62 49 52 58 71 69 79 97 98 98 87 82 58 54 54 64 76 72 90 62 76 69 74 73 67 71 61 53 64 45 62 50 63 61 60 55 47 48 63 64 66 65 70
75 73 73 72 71 73 76 76 74 72 68 65 67 64 69 79 76 81 88 95 99 100 90 83 79 52 54 74 75 73 94 86 89 94 72 72 77 64 70 60 46 49 58 67 62 49 54 63 68 71 71 76 74 76
89 82 82 81 77 74 73 74 73 72 73 75 76 72 68 76 76 81 91 91 99 99 100 96 75 86 74 73 84 80 80 82 96 98 88 89 83 78 70 67 69 61 69 70 91 67 57 56 65 70 84 92 90 98
99 99 100 96 93 89 79 74 72 76 75 71 70 72 71 73 71 75 87 89 91 90 99 99 86 75 82 81 78 77 85 97 98 95 98 96 95 93 98 96 96 77 70 82 75 47 55 55 73 84 97 98 96 93
99 98 98 99 91 92 95 88 77 73 74 73 72 71 71 73 70 88 99 92 97 100 98 100 100 88 74 68 73 75 80 85 90 95 90 93 97 82 93 81 48 49 53 50 50 54 70 86 88 90 93 91 91 82
97 99 99 99 98 93 97 98 93 81 77 77 77 76 72 68 81 95 93 91 88 99 98 98 98 99 97 99 100 97 89 98 88 91 88 72 79 85 99 77 42 43 45 50 57 78 92 98 93 98 96 93 84 73
91 91 96 99 99 98 98 99 100 95 92 82 80 86 78 68 86 96 85 74 75 99 100 100 98 98 100 99 99 100 100 100 98 83 97 84 71 93 91 50 54 56 50 53 56 85 70 88 97 93 97 86 73 64
92 90 93 98 100 100 100 99 100 97 97 94 93 93 94 97 100 99 92 90 90 94 99 92 78 93 99 100 99 98 99 96 92 88 73 69 61 82 57 43 44 44 49 50 59 76 84 93 94 94 82 75 63 53
94 94 95 99 99 100 99 99 100 97 99 99 99 100 100 100 92 98 99 99 100 99 92 74 68 97 93 93 98 96 96 80 90 70 68 77 65 47 41 42 45 45 45 56 76 83 90 96 95 84 76 67 57 51
96 94 94 97 98 99 97 97 92 98 99 100 100 100 99 100 96 92 100 99 99 99 99 64 65 92 90 80 90 77 87 76 82 68 81 76 62 62 43 45 42 42 43 53 63 56 75 78 88 83 74 65 56 34
96 89 91 94 96 96 98 99 99 99 100 98 92 100 100 97 100 100 99 99 98 94 96 64 76 76 88 84 80 91 86 81 84 81 94 81 46 38 37 40 44 45 46 51 69 70 78 81 84 81 74 66 47 23
98 92 86 89 93 92 93 91 93 99 99 100 98 100 98 100 100 98 92 93 85 95 84 78 92 91 96 88 80 79 93 90 73 95 71 49 42 44 48 61 62 62 71 76 78 81 80 77 79 73 68 55 28 32
99 98 91 85 96 98 95 96 100 99 99 100 99 97 97 98 82 66 62 58 70 73 76 75 74 74 83 78 81 91 70 74 93 86 58 67 52 41 54 50 72 79 81 82 82 79 74 72 68 69 57 34 19 21
99 96 89 87 93 97 100 99 99 100 91 99 97 96 93 80 68 68 52 68 75 74 71 65 77 76 84 95 79 70 91 86 69 51 55 45 51 56 62 60 68 80 83 86 83 77 69 60 59 51 26 14 16 16
99 100 98 97 98 98 100 99 100 98 98 97 92 91 87 84 96 82 68 72 73 67 64 67 82 85 84 72 85 85 71 68 56 61 54 61 49 57 67 78 83 85 88 86 80 70 64 58 44 19 15 17 16 22
100 99 99 97 100 100 99 100 99 99 98 93 95 92 78 77 88 84 79 73 69 67 76 70 85 71 63 74 70 58 70 61 50 62 67 59 68 64 73 82 87 88 88 83 76 69 59 35 16 12 17 18 25 26
98 97 98 100 100 99 100 97 99 99 100 90 85 89 92 78 82 86 76 73 70 58 58 56 64 75 80 65 57 54 59 57 61 58 64 58 62 72 78 86 86 88 85 80 72 57 31 18 18 26 20 22 28 31
92 99 100 99 99 97 99 99 99 96 99 100 100 98 90 91 85 84 80 74 63 63 73 60 63 60 59 51 55 56 54 66 71 66 67 69 74 75 78 87 88 87 83 76 55 34 21 28 31 33 35 26 52 60
100 100 99 100 92 89 99 99 99 86 90 99 99 98 97 95 93 90 84 85 78 69 71 67 56 52 58 68 55 64 57 56 61 82 90 93 87 82 85 88 87 83 75 53 39 26 46 44 44 50 25 38 65 57
99 99 100 98 96 98 99 99 99 99 100 99 100 100 98 98 94 91 88 88 73 61 52 64 74 69 52 50 49 44 45 44 48 55 58 78 92 93 93 90 82 77 57 39 35 46 29 34 44 29 24 36 41 28
99 98 99 93 88 99 98 100 96 98 95 99 95 94 96 93 92 95 99 84 70 62 83 89 85 68 58 51 50 51 49 52 55 60 67 76 96 94 92 86 81 64 46 33 30 12 26 44 23 23 30 31 29 28
100 87 81 79 87 97 99 99 91 81 86 95 81 86 93 93 98 98 94 86 83 76 70 73 74 67 64 60 66 66 67 75 80 82 80 90 92 90 90 84 73 56 44 37 20 13 20 14 18 25 29 29 28 30
80 78 83 86 86 99 99 95 88 80 89 83 77 87 85 94 100 98 90 85 86 81 76 77 77 73 81 84 84 86 85 94 95 91 95 98 100 98 90 78 64 53 45 26 15 14 12 17 23 28 26 26 29 34
75 80 77 92 89 90 93 91 87 76 88 84 82 87 89 94 88 86 78 75 100 95 92 93 94 97 94 100 100 99 93 98 100 97 100 100 97 95 86 73 63 56 40 18 14 14 19 23 24 24 24 26 32 36
77 83 76 82 86 83 79 90 90 88 82 88 84 82 85 87 92 84 65 83 100 100 100 99 99 100 100 99 100 100 99 100 100 98 97 92 85 70 68 68 64 44 23 19 13 15 19 20 20 22 26 33 38 37
80 89 88 91 81 83 88 87 83 82 88 87 85 92 87 91 88 78 100 100 100 99 100 99 100 100 100 100 100 100 98 97 92 80 80 83 76 70 63 53 40 17 14 16 16 15 13 14 19 25 33 40 39 37
88 83 88 90 89 91 91 90 91 91 88 79 78 88 87 78 78 100 100 100 99 100 100 100 100 97 95 93 90 87 86 83 81 77 74 73 72 68 60 36 17 15 15 13 14 16 17 23 28 32 36 40 40 37
90 84 79 92 90 90 90 90 90 95 98 86 89 86 88 100 100 100 100 100 100 100 100 96 91 87 86 86 83 81 78 76 72 74 65 52 40 28 22 19 18 19 20 18 19 21 29 38 40 40 43 46 40 36
91 84 84 90 89 89 93 99 98 97 96 97 96 97 100 100 99 99 100 100 100 100 93 88 86 83 69 51 65 76 75 71 55 31 18 15 14 13 16 20 21 20 21 23 24 28 39 43 36 34 36 36 34 33
93 90 85 92 92 97 98 96 96 96 95 99 93 92 96 99 97 97 100 99 99 88 80 84 74 50 38 35 33 31 36 32 26 20 17 15 14 17 19 20 19 18 20 22 24 29 31 34 36 39 39 35 32 33
95 89 83 84 91 97 97 99 99 96 99 93 99 100 99 99 96 96 98 90 81 71 69 58 47 46 44 40 37 36 32 33 32 30 26 22 21 22 21 18 16 16 16 20 25 30 34 38 36 34 32 31 32 34
96 91 88 86 89 91 96 94 90 92 94 92 95 100 100 98 93 96 96 96 89 76 68 66 68 71 68 59 52 46 43 39 43 44 38 34 30 27 26 25 25 25 25 27 30 33 34 34 32 30 30 32 32 32